Regional Weather Roundup
Issued by NWS

Home | Current Version | Previous Version | Graphics & Text | Print | Product List | Glossary On
Versions: 1 2 3 4 5 6 7 8 9 10 11 12 13 14 15 16 17 18 19 20 21 22 23 24 25 26 27 28 29 30 31 32 33 34 35 36 37 38 39 40 41 42 43 44 45 46 47 48 49 50
000
ASUS45 KTFX 231619
RWRMT
MONTANA HOURLY WEATHER ROUNDUP
NATIONAL WEATHER SERVICE GREAT FALLS MT
1019 AM MDT THU OCT 23 2014

NOTE: "FAIR" INDICATES FEW OR NO CLOUDS BELOW 12000 FEET WITH NO
SIGNIFICANT WEATHER AND/OR OBSTRUCTIONS TO VISIBILITY.

* THESE STATIONS ARE NOT UNDER NWS QUALITY CONTROL. THEY DO NOT
   REPORT WEATHER SUCH AS PRECIPITATION OR FOG.

MTZ001>007-043-231700-
WEST OF THE DIVIDE
CITY           SKY/WX    TMP DP  RH WIND       PRES   REMARKS
KALISPELL      CLOUDY    50  46  86 S8        29.84R
MISSOULA       CLOUDY    52  43  72 E9        29.89F
BUTTE          CLOUDY    48  34  59 CALM      30.01S
MULLAN PASS    LGT RAIN  39  39 100 VRB7G18   29.86S VSB M1/4 WCI  34
* ESSEX        N/A       44  44 100 N/A        N/A
* POLSON       N/A       46  46 100 SE1        N/A
$$

MTZ008-052>055-231700-
SOUTHWEST MONTANA
CITY           SKY/WX    TMP DP  RH WIND       PRES   REMARKS
BOZEMAN        CLOUDY    54  36  51 CALM      29.99R
DILLON         CLOUDY    48  34  59 SW7       30.02F
W YELLOWSTONE  CLOUDY    41  25  53 SE10      30.13F
* BOULDER HILL N/A       45  26  47 SW14       N/A
* MONIDA PASS  N/A       38  24  57 S12G18     N/A   WCI  30
* RAYNOLDS PAS N/A       41  26  55 SE10       N/A
$$

MTZ009>010-012-014-046-048-049-054-231700-
EAST SLOPES AND CENTRAL MONTANA
CITY           SKY/WX    TMP DP  RH WIND       PRES   REMARKS
CUT BANK       CLOUDY    52  39  61 W18G23    29.78R
GREAT FALLS    CLOUDY    55  36  49 S9        29.82S
HELENA         CLOUDY    57  32  39 SE8       29.91R
MALMSTROM AFB  CLOUDY    54  37  53 SW10      29.83S
* CONRAD       CLOUDY    48  39  71 SE10       N/A
* DEARBORN     N/A       58  33  39 S12G19     N/A
* EAST GLACIER N/A       45  38  77 W29G35     N/A
* MONARCH      N/A       48  20  33 SW16       N/A
* PENDROY      N/A       46  36  68 SE6        N/A
* ROGERS PASS  N/A       47  32  56 SE19G28    N/A
* SWEET GRASS  N/A       53  37  55 SW23G30    N/A
$$

MTZ011-013-016-021-035-040-045-047-050-051-231700-
NORTH CENTRAL MONTANA
CITY           SKY/WX    TMP DP  RH WIND       PRES   REMARKS
HAVRE          CLOUDY    59  36  42 SW17      29.75S
LEWISTOWN      PTSUNNY   57  34  42 W12       29.87R
* CHINOOK      CLOUDY    63  36  37 SW12G17   29.74S
* FORT BENTON  CLOUDY    59  36  42 S12G18    29.79S
* CHESTER      N/A       52  36  55 SW10G19    N/A
* DENTON       N/A       53  32  45 SW17       N/A
* GEYSER       N/A       54  28  37 SW19G24    N/A
* JUDITH GAP   N/A       53  32  45 SW17G25    N/A
* LOMA         N/A       57  34  42 S16G29     N/A
$$

MTZ017>020-022>027-061-062-231700-
NORTHEAST MONTANA
CITY           SKY/WX    TMP DP  RH WIND       PRES   REMARKS
GLASGOW        CLOUDY    46  36  68 SE7       29.79S
GLENDIVE       PTSUNNY   46  34  63 SE7       29.88S
JORDAN         PTSUNNY   52  34  50 CALM      29.83R
SIDNEY         PTCLDY    48  34  59 S8        29.85F
WOLF POINT     PTSUNNY   43  36  76 CALM      29.82S
* BEAVER HILL  N/A       49  29  46 S13        N/A
* CIRCLE       N/A       43  31  63 SW8        N/A
* LINDSAY DVD  N/A       47  29  50 S9         N/A
* NAVAJO       N/A       47  30  52 SW10       N/A
$$

MTZ028>042-056>058-231700-
SOUTHCENTRAL AND SOUTHEAST MONTANA
CITY           SKY/WX    TMP DP  RH WIND       PRES   REMARKS
BAKER          PTCLDY    55  34  45 CALM      29.91S
BILLINGS       PTSUNNY   55  25  31 SW15G25   29.90S
LIVINGSTON     PTCLDY    55  27  34 SW29G43   29.94R
MILES CITY     PTSUNNY   43  28  56 SE9       29.89S
* LAUREL APT   PTSUNNY   54  21  27 SW7        N/A
* ROUNDUP APT  PTSUNNY   43  25  49 S6         N/A
* ALZADA       N/A       41  30  65 E2         N/A
* HYSHAM       N/A       48  22  36 W5         N/A
* LAME DEER    N/A       52  18  26 SW1        N/A
* REED POINT   N/A       35  31  85 N/A        N/A
* ROSCOE HILL  N/A       54  22  29 S16G27     N/A
$$

REGIONAL REPORTS...DAKOTAS
CITY           SKY/WX    TMP DP  RH WIND       PRES   REMARKS
WILLISTON      PTSUNNY   46  32  58 S9        29.84F
DICKINSON      SUNNY     55  32  42 W8        29.88S
BEACH          N/A       55  32  42 SW10      29.89S
CROSBY         SUNNY     46  37  71 S14       29.80F
TIOGA          SUNNY     48  36  63 SW10      29.87R
BISMARCK       SUNNY     54  36  51 SW6       29.91F
GRAND FORKS    SUNNY     57  43  60 SW7       29.86S
FARGO          SUNNY     52  43  72 S10       29.92S
BUFFALO SD     SUNNY     54  28  37 SW3       29.87S
RAPID CITY     CLOUDY    54  28  37 CALM      29.98F
$$

REGIONAL REPORTS...WYOMING/IDAHO/WASHINGTON
CITY           SKY/WX    TMP DP  RH WIND       PRES   REMARKS
GILLETTE       CLOUDY    55  21  27 SW18G26   29.96F
SHERIDAN       CLOUDY    46  30  54 SE5       29.94R
CODY           CLOUDY    59  28  31 SW14G20   30.00F
YELLOWSTONE LA PTCLDY    39  28  65 CALM      30.19S
SALMON         CLOUDY   N/A N/A N/A N/A        N/A
MULLAN PASS    LGT RAIN  39  39 100 VRB7G18   29.86S VSB M1/4 WCI  34
SAND POINT     CLOUDY    50  50 100 SW5       29.81R
SPOKANE        LGT RAIN  50  48  93 S9        29.80S
$$

REGIONAL REPORTS...ALBERTA
CITY           SKY/WX    TMP DP  RH WIND       PRES   REMARKS
CALGARY        SUNNY     52  34  50 N6        29.53R
LETHBRIDGE     SUNNY     57  37  47 SW21G33   29.65R
MEDICINE HAT   PTSUNNY   55  41  59 S15G24    29.66R
EDMONTON       PTSUNNY   45  36  71 W3        29.42R
WATERTON GATE  N/A       45  41  86 SW14G20    N/A
CARDSTON       N/A       52  39  61 W20G32     N/A
MILK RIVER     N/A       54  39  57 SW17G26    N/A
$$

REGIONAL REPORTS...SASKATCHEWAN
CITY           SKY/WX    TMP DP  RH WIND       PRES   REMARKS
SWIFT CURRENT  PTCLDY    48  37  66 SW16      29.68R
MOOSE JAW      PTSUNNY   54  37  53 S16       29.71F
REGINA         PTSUNNY   43  37  79 SE8       29.74S
VAL MARIE      N/A       43  37  79 SW2        N/A
ASSINIBOIA     N/A       54  36  51 S12        N/A

$$




USA.gov is the U.S. government's official web portal to all federal, state and local government web resources and services.